Home   Weather   San Pedro Sula   Past weeks
Flag for Honduras

Past Weather in San Pedro Sula, Honduras — Yesterday and Last 2 Weeks

Now
79 °F

Passing clouds.


Feels Like: 82 °F
Forecast: 92 / 75 °F
Wind: 7 mph from North

Location: La Mesa San Pedro Sula

Current Time: Apr 23, 2019 at 12:26:32 am

Latest Report: Apr 23, 2019 at 12:00 am


Visibility: N/A

Pressure: 29.98 "Hg

Humidity: 84%

Dew Point: 73 °F

Location of San Pedro SulaLocation

Past Weather in San Pedro Sula — Graph

°F

San Pedro Sula Temperature Yesterday

Maximum temperature yesterday: 90 °F (at 11:00 am)
Minimum temperature yesterday: 72 °F (at 6:00 am)
Average temperature yesterday: 82 °F

High & Low Weather Summary for the Past Weeks

 TemperatureHumidityPressure
High104 °F (Apr 13, 1:00 pm)94% (Apr 8, 2:00 am)30.12 "Hg (Apr 8, 2:00 am)
Low64 °F (Apr 21, 6:00 am)24% (Apr 13, 1:00 pm)29.59 "Hg (Apr 13, 2:00 pm)
Average84 °F66%29.86 "Hg
* Reported Apr 7 11:00 pm — Apr 22 11:00 pm, San Pedro Sula. Weather by CustomWeather, © 2019

Note: Actual official high and low records may vary slightly from our data, if they occured in-between our weather recording intervals... More about our weather records

Advertising

San Pedro Sula Weather History for the Previous 24 Hours

Scroll right to see more
 ConditionsComfort  
Time TempWeatherWind HumidityBarometerVisibility
11:00 pm
Mon, Apr 22
79 °FPassing clouds.5 mph79%29.98 "HgN/A
10:00 pm79 °FPassing clouds.6 mph79%29.98 "HgN/A
9:00 pm79 °FPassing clouds.7 mph79%29.95 "HgN/A
8:00 pm81 °FPassing clouds.14 mph79%29.92 "HgN/A
7:00 pm81 °FPassing clouds.10 mph74%29.92 "HgN/A
6:00 pm82 °FPartly sunny.14 mph70%29.89 "HgN/A
5:00 pm86 °FPartly sunny.18 mph59%29.89 "HgN/A
4:00 pm86 °FPartly sunny.22 mph62%29.89 "HgN/A
3:00 pm90 °FBroken clouds.21 mph55%29.89 "HgN/A
2:00 pm90 °FBroken clouds.15 mph52%29.89 "HgN/A
1:00 pm90 °FScattered clouds.14 mph49%29.92 "HgN/A
12:00 pm90 °FScattered clouds.10 mph49%29.95 "HgN/A
11:00 am90 °FScattered clouds.8 mph49%29.98 "HgN/A
10:00 am86 °FScattered clouds.2 mph55%30.01 "HgN/A
9:00 am82 °FPassing clouds.3 mph62%30.01 "HgN/A
8:00 am79 °FPassing clouds.3 mph70%30.01 "HgN/A
7:00 am73 °FPassing clouds.3 mph89%30.01 "HgN/A
6:00 am72 °FScattered clouds.No wind88%30.01 "HgN/A
12:00 am73 °FPassing clouds.No wind89%30.01 "HgN/A
Weather by CustomWeather, © 2019

See weather overview